Regional Weather Roundup
Issued by NWS

Home | Current Version | Previous Version | Graphics & Text | Print | Product List | Glossary On
Versions: 1 2 3 4 5 6 7 8 9 10 11 12 13 14 15 16 17 18 19 20 21 22 23 24 25 26 27 28 29 30 31 32 33 34 35 36 37 38 39 40 41 42 43 44 45 46 47 48 49 50
000
ASUS45 KBOI 300010
RWRID
WEATHER ROUNDUP FOR IDAHO
NATIONAL WEATHER SERVICE BOISE ID
600 PM MDT MON SEP 29 2014

NOTE: "FAIR" INDICATES FEW OR NO CLOUDS BELOW 12000 FEET
WITH NO SIGNIFICANT WEATHER AND/OR OBSTRUCTIONS TO VISIBILITY

IDZ012-014-300100-
SOUTHWEST IDAHO


CITY           SKY/WX    TMP DP  RH WIND       PRES   REMARKS
BOISE          LGT RAIN  57  53  86 N10       29.96R
CALDWELL       CLOUDY    57  46  67 N6        29.97S
MOUNTAIN HOME  CLOUDY    61  50  67 NW6       29.95R
$$

IDZ016-017-300100-
SOUTHCENTRAL IDAHO


CITY           SKY/WX    TMP DP  RH WIND       PRES   REMARKS
BURLEY         CLOUDY    53  47  79 N6        29.96R
JEROME         LGT RAIN  52  49  89 E6        29.97S
TWIN FALLS     LGT RAIN  54  48  80 S3        29.97R
$$

IDZ019>023-300100-
SOUTHEAST IDAHO


CITY           SKY/WX    TMP DP  RH WIND       PRES   REMARKS
IDAHO FALLS    PTSUNNY   55  45  68 SW15      29.97R
POCATELLO      PTSUNNY   55  46  71 S5        29.97F
REXBURG        CLOUDY    50  47  89 S3        29.96R
$$

IDZ006-010-011-018-031-032-300100-
CENTRAL IDAHO MOUNTAINS


CITY           SKY/WX    TMP DP  RH WIND       PRES   REMARKS
MCCALL         CLOUDY    48  46  93 N3        29.96S
HAILEY         PTSUNNY   48  45  87 S7        29.99F
STANLEY          N/A     49  43  80 S3        29.97S
SALMON         CLOUDY    59  45  58 CALM      29.84S
CHALLIS        PTSUNNY   57  43  59 SE6       29.89S
$$

IDZ002-004-006-007-026-300100-
NORTHERN IDAHO


CITY           SKY/WX    TMP DP  RH WIND       PRES   REMARKS
LEWISTON       PTSUNNY   69  51  52 S14       29.80S
LOWELL           N/A     58  56  93 CALM      29.87F
COEUR D`ALENE  PTSUNNY   64  46  52 S10       29.80F
MULLAN PASS    FOG       43  42  97 VRB3      29.90S VSB<1/4
$$



USA.gov is the U.S. government's official web portal to all federal, state and local government web resources and services.